TIGER21 KNSE-KNPA

Flight info

Callsign TIGER21
Flight time 1h 4m
Altitude 11500
Route NPA
Aircraft HAWK/M-SDFIRY/LB1

Departure

Time 2026-04-13 17:09
Airport Whiting Field Naval Air Station - North (KNSE)

Arrival

Time 2026-04-13 18:14
Airport Naval Air Station Pensacola Forrest Sherman Field (KNPA)
Time Latitude Longitude Altitude Speed Heading
2026-04-13 17:00 30.71618 -87.02640 182 ft 0 kts 88°
2026-04-13 17:02 30.71618 -87.02639 182 ft 1 kts 88°
2026-04-13 17:02 30.71645 -87.02614 182 ft 5 kts 360°
2026-04-13 17:03 30.71673 -87.02613 183 ft 3 kts
2026-04-13 17:03 30.71690 -87.02613 183 ft 6 kts
2026-04-13 17:03 30.71770 -87.02609 195 ft 16 kts
2026-04-13 17:03 30.71871 -87.02603 186 ft 13 kts 10°
2026-04-13 17:04 30.71920 -87.02540 188 ft 9 kts 56°
2026-04-13 17:04 30.71948 -87.02490 193 ft 6 kts 57°
2026-04-13 17:04 30.71991 -87.02437 196 ft 12 kts 28°
2026-04-13 17:04 30.72058 -87.02411 192 ft 10 kts 37°
2026-04-13 17:05 30.72074 -87.02345 193 ft 9 kts 92°
2026-04-13 17:05 30.72071 -87.02269 193 ft 12 kts 91°
2026-04-13 17:05 30.72068 -87.02165 192 ft 13 kts 93°
2026-04-13 17:05 30.72062 -87.02066 189 ft 13 kts 92°
2026-04-13 17:06 30.72068 -87.01974 187 ft 9 kts 62°
2026-04-13 17:06 30.72107 -87.01954 195 ft 3 kts 13°
2026-04-13 17:06 30.72111 -87.01953 195 ft 0 kts 13°
2026-04-13 17:06 30.72228 -87.01919 200 ft 25 kts 13°
2026-04-13 17:07 30.72385 -87.01878 198 ft 20 kts 13°
2026-04-13 17:07 30.72496 -87.01846 205 ft 13 kts 14°
2026-04-13 17:07 30.72566 -87.01834 208 ft 8 kts 341°
2026-04-13 17:07 30.72612 -87.01877 208 ft 12 kts 309°
2026-04-13 17:08 30.72620 -87.01951 207 ft 9 kts 218°
2026-04-13 17:08 30.72542 -87.02043 203 ft 43 kts 225°
2026-04-13 17:08 30.72127 -87.02558 200 ft 129 kts 224°
2026-04-13 17:08 30.71398 -87.03471 526 ft 183 kts 224°
2026-04-13 17:09 30.70716 -87.04904 783 ft 253 kts 289°
2026-04-13 17:09 30.72384 -87.05196 955 ft 287 kts 25°
2026-04-13 17:09 30.73798 -87.03794 973 ft 250 kts 55°
2026-04-13 17:09 30.74783 -87.02350 1062 ft 213 kts 54°
2026-04-13 17:10 30.75341 -87.01039 1130 ft 159 kts 99°
2026-04-13 17:10 30.74729 -87.00136 1026 ft 148 kts 165°
2026-04-13 17:10 30.73831 -87.00432 743 ft 136 kts 227°
2026-04-13 17:10 30.73251 -87.01238 490 ft 136 kts 222°
2026-04-13 17:11 30.72509 -87.02098 403 ft 167 kts 220°
2026-04-13 17:11 30.71492 -87.03343 522 ft 250 kts 231°
2026-04-13 17:11 30.72079 -87.04851 698 ft 243 kts 356°
2026-04-13 17:11 30.73324 -87.03812 811 ft 228 kts 56°
2026-04-13 17:12 30.74199 -87.02368 1016 ft 217 kts 55°
2026-04-13 17:12 30.74739 -87.00989 1065 ft 170 kts 109°
2026-04-13 17:12 30.73888 -87.00417 960 ft 152 kts 200°
2026-04-13 17:12 30.73182 -87.01262 535 ft 140 kts 223°
2026-04-13 17:13 30.72534 -87.02041 218 ft 127 kts 223°
2026-04-13 17:13 30.71984 -87.02714 187 ft 106 kts 225°
2026-04-13 17:13 30.71631 -87.03161 173 ft 22 kts 226°
2026-04-13 17:13 30.71527 -87.03258 169 ft 14 kts 193°
2026-04-13 17:14 30.71472 -87.03197 170 ft 10 kts 115°
2026-04-13 17:14 30.71445 -87.03132 171 ft 9 kts 116°
2026-04-13 17:14 30.71389 -87.02995 172 ft 30 kts 116°
2026-04-13 17:14 30.71307 -87.02783 175 ft 27 kts 118°
2026-04-13 17:15 30.71275 -87.02651 176 ft 11 kts 58°
2026-04-13 17:15 30.71344 -87.02627 177 ft 15 kts
2026-04-13 17:15 30.71518 -87.02614 180 ft 30 kts
2026-04-13 17:15 30.71688 -87.02582 184 ft 17 kts 10°
2026-04-13 17:16 30.71746 -87.02593 192 ft 5 kts 322°
2026-04-13 17:16 30.71787 -87.02608 188 ft 9 kts
2026-04-13 17:16 30.71839 -87.02606 185 ft 6 kts
2026-04-13 17:16 30.71916 -87.02588 187 ft 18 kts 35°
2026-04-13 17:17 30.71993 -87.02537 189 ft 8 kts 344°
2026-04-13 17:17 30.72056 -87.02651 188 ft 22 kts 302°
2026-04-13 17:17 30.72157 -87.02750 196 ft 17 kts 356°
2026-04-13 17:17 30.72266 -87.02747 192 ft 15 kts
2026-04-13 17:18 30.72351 -87.02743 195 ft 10 kts
2026-04-13 17:18 30.72405 -87.02741 197 ft 7 kts
2026-04-13 17:18 30.72514 -87.02736 206 ft 20 kts
2026-04-13 17:18 30.72639 -87.02733 204 ft 16 kts
2026-04-13 17:19 30.72737 -87.02728 210 ft 12 kts
2026-04-13 17:19 30.72810 -87.02724 207 ft 9 kts
2026-04-13 17:19 30.72843 -87.02680 208 ft 7 kts 88°
2026-04-13 17:19 30.72806 -87.02618 207 ft 20 kts 138°
2026-04-13 17:20 30.72442 -87.02228 201 ft 130 kts 137°
2026-04-13 17:20 30.71490 -87.01275 537 ft 229 kts 152°
2026-04-13 17:20 30.69783 -87.00740 756 ft 261 kts 168°
2026-04-13 17:20 30.68154 -87.00117 731 ft 239 kts 159°
2026-04-13 17:21 30.66762 -86.99348 748 ft 194 kts 150°
2026-04-13 17:21 30.65789 -86.98689 815 ft 141 kts 149°
2026-04-13 17:21 30.65100 -86.97989 820 ft 136 kts 139°
2026-04-13 17:21 30.64472 -86.97201 888 ft 127 kts 127°
2026-04-13 17:22 30.63475 -86.96965 803 ft 217 kts 210°
2026-04-13 17:22 30.62177 -86.98336 1034 ft 253 kts 218°
2026-04-13 17:22 30.60851 -86.99657 1410 ft 251 kts 217°
2026-04-13 17:22 30.59537 -87.00925 1966 ft 248 kts 217°
2026-04-13 17:23 30.58221 -87.02205 2639 ft 246 kts 218°
2026-04-13 17:23 30.56913 -87.03482 3240 ft 245 kts 217°
2026-04-13 17:23 30.55616 -87.04753 3720 ft 243 kts 218°
2026-04-13 17:23 30.54328 -87.06019 4127 ft 245 kts 218°
2026-04-13 17:24 30.53005 -87.07316 4334 ft 254 kts 218°
2026-04-13 17:24 30.51624 -87.08666 4422 ft 266 kts 217°
2026-04-13 17:24 30.50178 -87.10072 4556 ft 277 kts 217°
2026-04-13 17:24 30.48689 -87.11513 4598 ft 288 kts 217°
2026-04-13 17:25 30.47128 -87.13020 4544 ft 295 kts 217°
2026-04-13 17:25 30.45552 -87.14539 4510 ft 288 kts 218°
2026-04-13 17:25 30.44078 -87.15968 4494 ft 266 kts 217°
2026-04-13 17:25 30.42712 -87.17299 4490 ft 248 kts 217°
2026-04-13 17:26 30.41430 -87.18556 4487 ft 235 kts 218°
2026-04-13 17:26 30.40218 -87.19750 4485 ft 224 kts 218°
2026-04-13 17:26 30.39045 -87.20910 4489 ft 224 kts 216°
2026-04-13 17:26 30.37669 -87.21634 4499 ft 226 kts 182°
2026-04-13 17:27 30.35165 -87.19404 4554 ft 270 kts 107°
2026-04-13 17:27 30.35026 -87.17165 4606 ft 283 kts 91°
2026-04-13 17:27 30.35118 -87.14920 4549 ft 275 kts 88°
2026-04-13 17:28 30.35262 -87.12745 4523 ft 269 kts 87°
2026-04-13 17:28 30.35426 -87.10607 4514 ft 263 kts 86°
2026-04-13 17:28 30.35596 -87.08514 4507 ft 259 kts 86°
2026-04-13 17:28 30.35769 -87.06450 4501 ft 256 kts 86°
2026-04-13 17:29 30.35941 -87.04439 4523 ft 253 kts 86°
2026-04-13 17:29 30.36117 -87.02419 4516 ft 251 kts 86°
2026-04-13 17:29 30.36290 -87.00411 4519 ft 250 kts 86°
2026-04-13 17:29 30.36462 -86.98413 4515 ft 249 kts 87°
2026-04-13 17:30 30.36649 -86.96424 4607 ft 249 kts 85°
2026-04-13 17:30 30.36828 -86.94429 4642 ft 250 kts 86°
2026-04-13 17:30 30.37140 -86.92440 4548 ft 256 kts 69°
2026-04-13 17:30 30.38100 -86.90702 3806 ft 260 kts 63°
2026-04-13 17:31 30.38231 -86.88779 2692 ft 249 kts 126°
2026-04-13 17:31 30.36773 -86.88049 2314 ft 224 kts 180°
2026-04-13 17:31 30.35300 -86.88237 2146 ft 198 kts 181°
2026-04-13 17:31 30.34059 -86.88243 2250 ft 163 kts 177°
2026-04-13 17:32 30.33638 -86.87297 1763 ft 222 kts 39°
2026-04-13 17:32 30.33972 -86.86102 1096 ft 195 kts 168°
2026-04-13 17:32 30.32727 -86.86103 924 ft 148 kts 166°
2026-04-13 17:32 30.31888 -86.85883 844 ft 111 kts 164°
2026-04-13 17:33 30.31133 -86.85709 869 ft 121 kts 167°
2026-04-13 17:33 30.30246 -86.85582 904 ft 119 kts 172°
2026-04-13 17:33 30.29436 -86.85466 850 ft 122 kts 169°
2026-04-13 17:33 30.28504 -86.85264 909 ft 150 kts 168°
2026-04-13 17:34 30.26511 -86.84861 809 ft 134 kts 169°
2026-04-13 17:34 30.25563 -86.84693 825 ft 149 kts 169°
2026-04-13 17:34 30.24559 -86.84616 778 ft 137 kts 185°
2026-04-13 17:35 30.23615 -86.85081 762 ft 161 kts 207°
2026-04-13 17:35 30.22664 -86.85761 745 ft 151 kts 207°
2026-04-13 17:35 30.21829 -86.86333 743 ft 139 kts 206°
2026-04-13 17:35 30.21052 -86.86881 724 ft 127 kts 206°
2026-04-13 17:36 30.20259 -86.87444 735 ft 135 kts 206°
2026-04-13 17:36 30.19456 -86.88012 722 ft 137 kts 207°
2026-04-13 17:36 30.18634 -86.88603 762 ft 140 kts 205°
2026-04-13 17:36 30.17791 -86.89173 741 ft 138 kts 206°
2026-04-13 17:37 30.16936 -86.89723 750 ft 145 kts 205°
2026-04-13 17:37 30.16103 -86.90204 733 ft 123 kts 202°
2026-04-13 17:37 30.15364 -86.90693 710 ft 120 kts 207°
2026-04-13 17:37 30.14578 -86.91228 767 ft 136 kts 207°
2026-04-13 17:38 30.13767 -86.91785 767 ft 142 kts 206°
2026-04-13 17:38 30.12897 -86.92375 779 ft 145 kts 208°
2026-04-13 17:38 30.12043 -86.92962 772 ft 140 kts 207°
2026-04-13 17:38 30.11198 -86.93535 691 ft 134 kts 206°
2026-04-13 17:39 30.10399 -86.94075 714 ft 136 kts 206°
2026-04-13 17:39 30.09578 -86.94645 723 ft 140 kts 207°
2026-04-13 17:39 30.08752 -86.95201 730 ft 139 kts 206°
2026-04-13 17:39 30.07893 -86.95754 740 ft 135 kts 202°
2026-04-13 17:40 30.07118 -86.96202 698 ft 123 kts 203°
2026-04-13 17:40 30.06354 -86.96668 662 ft 131 kts 205°
2026-04-13 17:40 30.05578 -86.97225 691 ft 133 kts 207°
2026-04-13 17:40 30.04772 -86.97828 710 ft 146 kts 208°
2026-04-13 17:41 30.03863 -86.98464 773 ft 155 kts 207°
2026-04-13 17:41 30.02978 -86.99027 736 ft 130 kts 200°
2026-04-13 17:41 30.02191 -86.99468 712 ft 127 kts 204°
2026-04-13 17:41 30.01414 -86.99985 707 ft 131 kts 208°
2026-04-13 17:42 30.00567 -87.00617 756 ft 159 kts 210°
2026-04-13 17:42 29.99616 -87.01152 763 ft 138 kts 195°
2026-04-13 17:42 29.98792 -87.01599 759 ft 134 kts 207°
2026-04-13 17:42 29.98002 -87.02142 775 ft 130 kts 205°
2026-04-13 17:43 29.97237 -87.02669 769 ft 130 kts 206°
2026-04-13 17:43 29.96422 -87.03179 738 ft 135 kts 204°
2026-04-13 17:43 29.95580 -87.03675 736 ft 137 kts 206°
2026-04-13 17:43 29.94742 -87.04214 778 ft 139 kts 206°
2026-04-13 17:44 29.93931 -87.04772 796 ft 131 kts 208°
2026-04-13 17:44 29.93161 -87.05303 739 ft 132 kts 208°
2026-04-13 17:44 29.92367 -87.05913 716 ft 143 kts 211°
2026-04-13 17:44 29.91527 -87.06563 717 ft 151 kts 211°
2026-04-13 17:45 29.90654 -87.07222 784 ft 149 kts 206°
2026-04-13 17:45 29.89802 -87.07737 768 ft 127 kts 205°
2026-04-13 17:45 29.89015 -87.08250 728 ft 133 kts 206°
2026-04-13 17:45 29.88236 -87.08797 719 ft 129 kts 209°
2026-04-13 17:46 29.87491 -87.09368 730 ft 131 kts 210°
2026-04-13 17:46 29.86703 -87.09951 759 ft 141 kts 207°
2026-04-13 17:46 29.85828 -87.10534 738 ft 151 kts 206°
2026-04-13 17:46 29.84961 -87.11126 703 ft 144 kts 206°
2026-04-13 17:47 29.84169 -87.11662 685 ft 128 kts 207°
2026-04-13 17:47 29.83355 -87.12223 704 ft 135 kts 205°
2026-04-13 17:47 29.82554 -87.12711 700 ft 127 kts 202°
2026-04-13 17:47 29.81776 -87.13169 681 ft 125 kts 204°
2026-04-13 17:48 29.81006 -87.13668 696 ft 130 kts 208°
2026-04-13 17:48 29.80196 -87.14202 720 ft 139 kts 207°
2026-04-13 17:48 29.79334 -87.14803 780 ft 151 kts 208°
2026-04-13 17:48 29.78447 -87.15451 747 ft 149 kts 208°
2026-04-13 17:49 29.77590 -87.16058 747 ft 141 kts 204°
2026-04-13 17:49 29.76774 -87.16604 723 ft 134 kts 209°
2026-04-13 17:49 29.75993 -87.17164 717 ft 131 kts 206°
2026-04-13 17:49 29.75136 -87.17627 770 ft 157 kts 185°
2026-04-13 17:50 29.73788 -87.17658 914 ft 219 kts 178°
2026-04-13 17:50 29.72222 -87.17641 1077 ft 223 kts 178°
2026-04-13 17:50 29.70703 -87.17630 1245 ft 218 kts 178°
2026-04-13 17:50 29.69182 -87.17649 1269 ft 221 kts 182°
2026-04-13 17:51 29.67627 -87.17802 1175 ft 227 kts 185°
2026-04-13 17:51 29.66076 -87.18224 1139 ft 232 kts 196°
2026-04-13 17:51 29.64617 -87.18980 1141 ft 234 kts 205°
2026-04-13 17:51 29.63118 -87.19905 1094 ft 277 kts 182°
2026-04-13 17:52 29.61962 -87.18163 737 ft 368 kts 98°
2026-04-13 17:52 29.61481 -87.15310 817 ft 334 kts 84°
2026-04-13 17:52 29.63182 -87.14865 865 ft 299 kts 307°
2026-04-13 17:52 29.63856 -87.16819 1266 ft 237 kts 287°
2026-04-13 17:53 29.64186 -87.17947 1320 ft 214 kts 285°
2026-04-13 17:53 29.63941 -87.19618 1539 ft 139 kts 207°
2026-04-13 17:53 29.63041 -87.19713 1295 ft 130 kts 160°
2026-04-13 17:53 29.62326 -87.19179 949 ft 120 kts 125°
2026-04-13 17:54 29.62018 -87.18341 720 ft 104 kts 108°
2026-04-13 17:54 29.61835 -87.17535 499 ft 105 kts 108°
2026-04-13 17:54 29.61696 -87.16675 345 ft 109 kts 100°
2026-04-13 17:54 29.61614 -87.15791 236 ft 108 kts 101°
2026-04-13 17:55 29.61502 -87.14949 114 ft 109 kts 101°
2026-04-13 17:55 29.61438 -87.14553 74 ft 15 kts 105°
2026-04-13 17:55 29.61404 -87.14414 77 ft 22 kts 108°
2026-04-13 17:55 29.61343 -87.14277 77 ft 18 kts 148°
2026-04-13 17:56 29.61307 -87.14120 75 ft 18 kts 100°
2026-04-13 17:56 29.61277 -87.13996 75 ft 15 kts 101°
2026-04-13 17:56 29.61249 -87.13880 73 ft 15 kts 101°
2026-04-13 17:56 29.61220 -87.13765 75 ft 15 kts 101°
2026-04-13 17:57 29.61192 -87.13649 73 ft 15 kts 101°
2026-04-13 17:57 29.61164 -87.13534 75 ft 15 kts 101°
2026-04-13 17:57 29.61135 -87.13418 73 ft 15 kts 101°
2026-04-13 17:57 29.61106 -87.13295 72 ft 15 kts 99°
2026-04-13 17:58 29.61078 -87.13181 74 ft 15 kts 100°
2026-04-13 17:58 29.61049 -87.13066 72 ft 15 kts 100°
2026-04-13 17:58 29.60920 -87.12373 261 ft 180 kts 103°
2026-04-13 17:58 29.61632 -87.11064 597 ft 277 kts
2026-04-13 17:59 29.62986 -87.12415 818 ft 263 kts 285°
2026-04-13 17:59 29.63353 -87.14384 1002 ft 240 kts 279°
2026-04-13 17:59 29.63412 -87.16194 988 ft 227 kts 235°
2026-04-13 17:59 29.61856 -87.16463 897 ft 297 kts 140°
2026-04-13 18:00 29.61020 -87.14079 812 ft 335 kts 103°
2026-04-13 18:00 29.60593 -87.11515 1002 ft 320 kts 77°
2026-04-13 18:00 29.62476 -87.11302 874 ft 332 kts 314°
2026-04-13 18:00 29.63050 -87.13598 921 ft 273 kts 277°
2026-04-13 18:01 29.62959 -87.15570 1048 ft 246 kts 231°
2026-04-13 18:01 29.61491 -87.15915 1119 ft 226 kts 136°
2026-04-13 18:01 29.60936 -87.14442 903 ft 191 kts 96°
2026-04-13 18:01 29.60861 -87.13006 443 ft 168 kts 96°
2026-04-13 18:02 29.60723 -87.11766 126 ft 144 kts 102°
2026-04-13 18:02 29.60638 -87.11268 77 ft 15 kts 103°
2026-04-13 18:02 29.60566 -87.11136 77 ft 11 kts 239°
2026-04-13 18:02 29.60541 -87.11045 75 ft 12 kts 309°
2026-04-13 18:03 29.60539 -87.10919 77 ft 23 kts 82°
2026-04-13 18:03 29.60504 -87.10757 77 ft 15 kts 104°
2026-04-13 18:03 29.60475 -87.10641 77 ft 15 kts 104°
2026-04-13 18:03 29.60447 -87.10525 77 ft 15 kts 104°
2026-04-13 18:04 29.60419 -87.10410 77 ft 15 kts 104°
2026-04-13 18:04 29.60306 -87.09892 156 ft 170 kts 100°
2026-04-13 18:04 29.60763 -87.08337 911 ft 259 kts 53°
2026-04-13 18:04 29.62475 -87.07007 1901 ft 344 kts 23°
2026-04-13 18:05 29.65001 -87.06513 3651 ft 390 kts
2026-04-13 18:05 29.67846 -87.06593 5563 ft 424 kts 359°
2026-04-13 18:05 29.70816 -87.06754 8017 ft 424 kts 358°
2026-04-13 18:05 29.73664 -87.06979 11257 ft 395 kts 355°
2026-04-13 18:06 29.76386 -87.07239 14010 ft 401 kts 354°
2026-04-13 18:06 29.79308 -87.07526 14840 ft 444 kts 354°
2026-04-13 18:06 29.82502 -87.07845 14721 ft 460 kts 354°
2026-04-13 18:06 29.85582 -87.08175 14439 ft 428 kts 351°
2026-04-13 18:07 29.88335 -87.08951 14160 ft 401 kts 342°
2026-04-13 18:07 29.90933 -87.09888 13842 ft 383 kts 340°
2026-04-13 18:07 29.93405 -87.10837 13655 ft 365 kts 340°
2026-04-13 18:07 29.95755 -87.11754 13569 ft 350 kts 340°
2026-04-13 18:08 29.98016 -87.12645 13531 ft 337 kts 340°
2026-04-13 18:08 30.00195 -87.13509 13516 ft 326 kts 339°
2026-04-13 18:08 30.02304 -87.14342 13509 ft 318 kts 340°
2026-04-13 18:08 30.04372 -87.15167 13509 ft 311 kts 339°
2026-04-13 18:09 30.06403 -87.15973 13503 ft 306 kts 339°
2026-04-13 18:09 30.08405 -87.16763 13506 ft 302 kts 340°
2026-04-13 18:09 30.10381 -87.17550 13509 ft 299 kts 340°
2026-04-13 18:09 30.12339 -87.18329 13508 ft 296 kts 340°
2026-04-13 18:10 30.14255 -87.19092 13512 ft 294 kts 340°
2026-04-13 18:10 30.16185 -87.19864 13516 ft 293 kts 340°
2026-04-13 18:10 30.18109 -87.20627 13511 ft 292 kts 340°
2026-04-13 18:10 30.20097 -87.21256 12823 ft 311 kts 350°
2026-04-13 18:11 30.22364 -87.21541 11397 ft 340 kts 354°
2026-04-13 18:11 30.24769 -87.21836 9988 ft 353 kts 354°
2026-04-13 18:11 30.27221 -87.22152 8698 ft 351 kts 354°
2026-04-13 18:11 30.29555 -87.22462 7537 ft 329 kts 354°
2026-04-13 18:12 30.31791 -87.22701 6014 ft 326 kts 355°
2026-04-13 18:12 30.34013 -87.23050 4754 ft 316 kts 347°
2026-04-13 18:12 30.35815 -87.24303 3493 ft 302 kts 307°
2026-04-13 18:12 30.36492 -87.26526 1793 ft 301 kts 270°
2026-04-13 18:13 30.36234 -87.28796 674 ft 245 kts 252°
2026-04-13 18:13 30.35772 -87.30301 124 ft 168 kts 246°
2026-04-13 18:13 30.35384 -87.31430 40 ft 133 kts 248°
2026-04-13 18:13 30.35087 -87.32284 39 ft 78 kts 248°
2026-04-13 18:14 30.34938 -87.32717 41 ft 25 kts 249°
2026-04-13 18:14 30.34846 -87.32771 43 ft 14 kts 159°
2026-04-13 18:14 30.34794 -87.32706 43 ft 11 kts 80°
2026-04-13 18:14 30.34824 -87.32615 42 ft 18 kts 68°